| time (UTC) | temp F | wind direction | speed knots | gust knots | rain 1hr in | rain 24hr in | rain mn in | humidity % | barometer mb |
| 20260507221527 | 59 | 238 | 0.9 | 9.6 | 0.00 | 0.13 | 0.00 | 40 | 1005.3 |
| 20260507221007 | 59 | 244 | 0.9 | 9.6 | 0.00 | 0.13 | 0.00 | 39 | 1005.2 |
| 20260507220508 | 59 | 275 | 1.7 | 7.0 | 0.00 | 0.13 | 0.00 | 37 | 1005.3 |
| 20260507220021 | 59 | 259 | 3.5 | 7.0 | 0.00 | 0.13 | 0.00 | 36 | 1005.2 |
| 20260507215508 | 60 | 262 | 1.7 | 6.1 | 0.00 | 0.13 | 0.00 | 40 | 1005.2 |
| 20260507215008 | 60 | 277 | 1.7 | 8.7 | 0.00 | 0.13 | 0.00 | 38 | 1005.2 |
| 20260507214518 | 60 | 238 | 2.6 | 8.7 | 0.00 | 0.13 | 0.00 | 37 | 1005.2 |
| 20260507214008 | 60 | 274 | 1.7 | 7.8 | 0.00 | 0.13 | 0.00 | 41 | 1005.1 |
| 20260507213510 | 59 | 166 | 1.7 | 5.2 | 0.00 | 0.13 | 0.00 | 38 | 1005.2 |
| 20260507213027 | 59 | 281 | 1.7 | 5.2 | 0.00 | 0.13 | 0.00 | 38 | 1005.1 |
| 20260507212507 | 59 | 321 | 1.7 | 7.8 | 0.00 | 0.13 | 0.00 | 37 | 1005.2 |
| 20260507212011 | 59 | 237 | 2.6 | 7.8 | 0.00 | 0.13 | 0.00 | 40 | 1005.3 |
| 20260507211520 | 60 | 296 | 1.7 | 10.4 | 0.00 | 0.13 | 0.00 | 37 | 1005.2 |
| 20260507211008 | 60 | 333 | 3.5 | 10.4 | 0.00 | 0.13 | 0.00 | 35 | 1005.3 |
| 20260507210507 | 60 | 20 | 2.6 | 7.0 | 0.00 | 0.13 | 0.00 | 38 | 1005.1 |
| 20260507210025 | 59 | 258 | 1.7 | 7.0 | 0.00 | 0.13 | 0.00 | 39 | 1005.1 |
| 20260507205510 | 59 | 290 | 1.7 | 7.8 | 0.00 | 0.13 | 0.00 | 42 | 1005.0 |
| 20260507205007 | 58 | 294 | 0.9 | 7.8 | 0.00 | 0.13 | 0.00 | 41 | 1005.0 |
| 20260507204521 | 58 | 19 | 2.6 | 8.7 | 0.00 | 0.13 | 0.00 | 42 | 1005.1 |
| 20260507204007 | 59 | 281 | 1.7 | 9.6 | 0.00 | 0.14 | 0.00 | 41 | 1005.0 |
| 20260507203509 | 59 | 315 | 3.5 | 9.6 | 0.00 | 0.14 | 0.00 | 38 | 1005.0 |
| 20260507203018 | 60 | 281 | 1.7 | 8.7 | 0.00 | 0.14 | 0.00 | 36 | 1005.0 |
| 20260507202511 | 60 | 205 | 2.6 | 8.7 | 0.00 | 0.15 | 0.00 | 37 | 1005.0 |
| 20260507202011 | 60 | 314 | 2.6 | 7.0 | 0.00 | 0.16 | 0.00 | 37 | 1005.1 |
| 20260507201520 | 60 | 282 | 2.6 | 8.7 | 0.00 | 0.16 | 0.00 | 39 | 1005.0 |
| 20260507201008 | 60 | 206 | 2.6 | 9.6 | 0.00 | 0.16 | 0.00 | 36 | 1005.1 |
| 20260507200507 | 60 | 241 | 3.5 | 9.6 | 0.00 | 0.17 | 0.00 | 37 | 1005.1 |
| 20260507200024 | 60 | 225 | 1.7 | 7.0 | 0.00 | 0.18 | 0.00 | 41 | 1005.1 |
| 20260507195507 | 60 | 298 | 2.6 | 8.7 | 0.00 | 0.18 | 0.00 | 39 | 1005.2 |
| 20260507195011 | 60 | 316 | 3.5 | 8.7 | 0.00 | 0.19 | 0.00 | 38 | 1005.1 |
| 20260507194532 | 60 | 169 | 1.7 | 5.2 | 0.00 | 0.19 | 0.00 | 39 | 1005.1 |
| 20260507194008 | 59 | 319 | 1.7 | 6.1 | 0.00 | 0.19 | 0.00 | 38 | 1005.3 |
| 20260507193511 | 58 | 242 | 0.9 | 8.7 | 0.00 | 0.19 | 0.00 | 42 | 1005.5 |
| 20260507193024 | 59 | 171 | 3.5 | 8.7 | 0.00 | 0.19 | 0.00 | 40 | 1005.5 |
| 20260507192507 | 59 | 233 | 1.7 | 8.7 | 0.00 | 0.19 | 0.00 | 40 | 1005.4 |
| 20260507192008 | 60 | 196 | 1.7 | 8.7 | 0.00 | 0.19 | 0.00 | 40 | 1005.5 |
| 20260507191524 | 59 | 45 | 1.7 | 7.8 | 0.00 | 0.20 | 0.00 | 40 | 1005.5 |
| 20260507191007 | 59 | 248 | 2.6 | 10.4 | 0.00 | 0.20 | 0.00 | 41 | 1005.5 |
| 20260507190506 | 58 | 193 | 3.5 | 10.4 | 0.00 | 0.20 | 0.00 | 43 | 1005.7 |
| 20260507190013 | 56 | 255 | 1.7 | 7.0 | 0.00 | 0.20 | 0.00 | 43 | 1005.7 |
| 20260507185503 | 56 | 323 | 2.6 | 9.6 | 0.00 | 0.20 | 0.00 | 42 | 1005.9 |
| 20260507185003 | 57 | 333 | 3.5 | 9.6 | 0.00 | 0.21 | 0.00 | 41 | 1005.9 |
| 20260507184510 | 57 | 292 | 1.7 | 7.8 | 0.00 | 0.22 | 0.00 | 42 | 1006.0 |
| 20260507184008 | 58 | 320 | 2.6 | 7.0 | 0.00 | 0.22 | 0.00 | 42 | 1006.0 |
| 20260507183503 | 58 | 296 | 2.6 | 7.0 | 0.00 | 0.23 | 0.00 | 40 | 1005.9 |
| 20260507183003 | 58 | 279 | 2.6 | 10.4 | 0.00 | 0.24 | 0.00 | 43 | 1005.9 |
| 20260507182503 | 57 | 212 | 0.9 | 10.4 | 0.00 | 0.25 | 0.00 | 48 | 1006.0 |
| 20260507182006 | 56 | 161 | 1.7 | 8.7 | 0.00 | 0.26 | 0.00 | 44 | 1005.9 |
| 20260507181503 | 57 | 9 | 4.3 | 10.4 | 0.00 | 0.27 | 0.00 | 44 | 1006.0 |
| 20260507181005 | 58 | 299 | 1.7 | 10.4 | 0.00 | 0.28 | 0.00 | 46 | 1006.0 |
| 20260507180503 | 58 | 305 | 1.7 | 7.8 | 0.00 | 0.29 | 0.00 | 45 | 1006.0 |
| 20260507180005 | 58 | 286 | 0.9 | 7.8 | 0.00 | 0.30 | 0.00 | 47 | 1006.0 |
| 20260507175503 | 59 | 325 | 2.6 | 7.8 | 0.00 | 0.31 | 0.00 | 45 | 1006.0 |
| 20260507175004 | 60 | 271 | 1.7 | 7.8 | 0.00 | 0.31 | 0.00 | 47 | 1006.0 |
| 20260507174513 | 60 | 292 | 2.6 | 7.8 | 0.00 | 0.32 | 0.00 | 47 | 1005.9 |
| 20260507174003 | 60 | 127 | 1.7 | 11.3 | 0.00 | 0.33 | 0.00 | 43 | 1005.8 |
| 20260507173506 | 60 | 292 | 3.5 | 11.3 | 0.00 | 0.33 | 0.00 | 45 | 1006.0 |
| 20260507173034 | 60 | 47 | 2.6 | 8.7 | 0.00 | 0.34 | 0.00 | 41 | 1006.0 |
| 20260507172508 | 59 | 225 | 1.7 | 8.7 | 0.00 | 0.34 | 0.00 | 46 | 1006.0 |
| 20260507172004 | 59 | 251 | 2.6 | 8.7 | 0.00 | 0.34 | 0.00 | 48 | 1006.0 |
| 20260507171503 | 59 | 325 | 1.7 | 6.1 | 0.00 | 0.34 | 0.00 | 48 | 1006.2 |
| 20260507171004 | 59 | 298 | 1.7 | 7.8 | 0.00 | 0.34 | 0.00 | 49 | 1006.2 |
| 20260507170504 | 60 | 5 | 2.6 | 7.8 | 0.00 | 0.34 | 0.00 | 43 | 1006.2 |
| 20260507170008 | 60 | 284 | 3.5 | 7.0 | 0.00 | 0.34 | 0.00 | 52 | 1006.4 |
| 20260507165503 | 59 | 303 | 2.6 | 8.7 | 0.00 | 0.34 | 0.00 | 46 | 1006.3 |
| 20260507165004 | 59 | 286 | 1.7 | 8.7 | 0.00 | 0.34 | 0.00 | 47 | 1006.3 |
| 20260507164514 | 59 | 245 | 3.5 | 8.7 | 0.00 | 0.34 | 0.00 | 45 | 1006.6 |
| 20260507164002 | 59 | 252 | 1.7 | 10.4 | 0.00 | 0.34 | 0.00 | 51 | 1006.4 |
| 20260507163504 | 58 | 245 | 2.6 | 10.4 | 0.00 | 0.34 | 0.00 | 51 | 1006.4 |
| 20260507163017 | 57 | 280 | 1.7 | 15.6 | 0.00 | 0.34 | 0.00 | 53 | 1006.6 |
| 20260507162506 | 58 | 248 | 3.5 | 15.6 | 0.00 | 0.34 | 0.00 | 50 | 1006.6 |
| 20260507162011 | 58 | 5 | 1.7 | 7.8 | 0.00 | 0.34 | 0.00 | 51 | 1006.7 |
| 20260507161518 | 58 | 190 | 1.7 | 7.8 | 0.00 | 0.34 | 0.00 | 55 | 1006.7 |
| 20260507161004 | 58 | 293 | 2.6 | 7.0 | 0.00 | 0.34 | 0.00 | 56 | 1006.6 |
| 20260507160507 | 57 | 184 | 1.7 | 12.2 | 0.00 | 0.34 | 0.00 | 52 | 1006.7 |
| 20260507160019 | 57 | 34 | 1.7 | 12.2 | 0.00 | 0.34 | 0.00 | 54 | 1006.8 |
| 20260507155505 | 56 | 306 | 3.5 | 9.6 | 0.00 | 0.34 | 0.00 | 54 | 1006.8 |
| 20260507155002 | 57 | 238 | 3.5 | 7.8 | 0.00 | 0.34 | 0.00 | 57 | 1006.9 |
| 20260507154508 | 56 | 242 | 1.7 | 7.0 | 0.00 | 0.34 | 0.00 | 65 | 1006.9 |
| 20260507154007 | 55 | 285 | 1.7 | 6.1 | 0.00 | 0.34 | 0.00 | 65 | 1007.1 |
| 20260507153507 | 55 | 125 | 1.7 | 7.0 | 0.00 | 0.34 | 0.00 | 64 | 1007.1 |
| 20260507153007 | 56 | 141 | 1.7 | 7.0 | 0.00 | 0.34 | 0.00 | 64 | 1007.1 |
| 20260507152511 | 56 | 273 | 1.7 | 8.7 | 0.00 | 0.34 | 0.00 | 67 | 1007.1 |
| 20260507152007 | 56 | 316 | 1.7 | 8.7 | 0.00 | 0.34 | 0.00 | 66 | 1007.3 |
| 20260507151506 | 55 | 300 | 2.6 | 7.0 | 0.00 | 0.34 | 0.00 | 66 | 1007.4 |
| 20260507151004 | 55 | 299 | 1.7 | 9.6 | 0.00 | 0.34 | 0.00 | 68 | 1007.4 |
| 20260507150508 | 55 | 223 | 1.7 | 9.6 | 0.00 | 0.34 | 0.00 | 67 | 1007.3 |
| 20260507150020 | 55 | 236 | 0.9 | 3.5 | 0.00 | 0.34 | 0.00 | 68 | 1007.3 |
| 20260507145507 | 54 | 360 | 1.7 | 5.2 | 0.00 | 0.34 | 0.00 | 70 | 1007.3 |
| 20260507145004 | 54 | 76 | 1.7 | 6.1 | 0.00 | 0.34 | 0.00 | 66 | 1007.4 |
| 20260507144532 | 54 | 307 | 1.7 | 6.1 | 0.00 | 0.34 | 0.00 | 67 | 1007.4 |
| 20260507144005 | 55 | 234 | 1.7 | 6.1 | 0.00 | 0.34 | 0.00 | 66 | 1007.3 |
| 20260507143506 | 54 | 324 | 0.9 | 7.0 | 0.00 | 0.34 | 0.00 | 68 | 1007.3 |
| 20260507143018 | 53 | 297 | 0.9 | 7.0 | 0.00 | 0.34 | 0.00 | 71 | 1007.4 |
| 20260507142506 | 53 | 270 | 0.9 | 6.1 | 0.00 | 0.34 | 0.00 | 72 | 1007.4 |
| 20260507142003 | 53 | 148 | 0.9 | 6.1 | 0.00 | 0.34 | 0.00 | 70 | 1007.4 |
| 20260507141518 | 54 | 49 | 1.7 | 6.1 | 0.00 | 0.34 | 0.00 | 70 | 1007.3 |
| 20260507141007 | 54 | 295 | 1.7 | 5.2 | 0.00 | 0.34 | 0.00 | 68 | 1007.3 |
| 20260507140509 | 53 | 238 | 0.9 | 6.1 | 0.00 | 0.34 | 0.00 | 71 | 1007.3 |
| 20260507140019 | 53 | 217 | 0.9 | 6.1 | 0.00 | 0.34 | 0.00 | 72 | 1007.5 |
| 20260507135504 | 53 | 247 | 0.9 | 7.0 | 0.00 | 0.34 | 0.00 | 72 | 1007.4 |
| 20260507135008 | 53 | 227 | 1.7 | 7.0 | 0.00 | 0.34 | 0.00 | 72 | 1007.4 |
| 20260507134524 | 53 | 277 | 1.7 | 8.7 | 0.00 | 0.34 | 0.00 | 72 | 1007.3 |
| 20260507134005 | 53 | 104 | 1.7 | 8.7 | 0.00 | 0.34 | 0.00 | 71 | 1007.4 |
| 20260507133509 | 53 | 290 | 2.6 | 9.6 | 0.00 | 0.34 | 0.00 | 71 | 1007.5 |
| 20260507133027 | 53 | 252 | 2.6 | 9.6 | 0.00 | 0.34 | 0.00 | 74 | 1007.6 |
| 20260507132505 | 52 | 248 | 0.9 | 7.0 | 0.00 | 0.34 | 0.00 | 72 | 1007.6 |
| 20260507132007 | 52 | 219 | 1.7 | 7.0 | 0.00 | 0.34 | 0.00 | 75 | 1007.6 |
| 20260507131518 | 52 | 169 | 1.7 | 9.6 | 0.00 | 0.34 | 0.00 | 72 | 1007.5 |
| 20260507131004 | 52 | 267 | 0.9 | 9.6 | 0.00 | 0.34 | 0.00 | 74 | 1007.6 |
| 20260507130510 | 51 | 249 | 0.9 | 7.8 | 0.00 | 0.34 | 0.00 | 75 | 1007.7 |
| 20260507130003 | 51 | 228 | 1.7 | 6.1 | 0.00 | 0.34 | 0.00 | 75 | 1007.7 |
| 20260507125504 | 51 | 116 | 1.7 | 5.2 | 0.00 | 0.34 | 0.00 | 75 | 1007.6 |
| 20260507125004 | 51 | 175 | 0.9 | 4.3 | 0.00 | 0.34 | 0.00 | 76 | 1007.6 |
| 20260507124509 | 51 | 279 | 0.9 | 6.1 | 0.00 | 0.34 | 0.00 | 73 | 1007.6 |
| 20260507124006 | 51 | 238 | 0.9 | 6.1 | 0.00 | 0.34 | 0.00 | 72 | 1007.6 |
| 20260507123504 | 50 | 302 | 0.0 | 3.5 | 0.00 | 0.34 | 0.00 | 76 | 1007.7 |
| 20260507123005 | 50 | 225 | 0.9 | 4.3 | 0.00 | 0.34 | 0.00 | 75 | 1007.6 |
| 20260507122503 | 50 | 311 | 0.0 | 7.8 | 0.00 | 0.34 | 0.00 | 74 | 1007.7 |
| 20260507122004 | 49 | 265 | 1.7 | 7.8 | 0.00 | 0.34 | 0.00 | 73 | 1007.8 |
| 20260507121513 | 49 | 355 | 1.7 | 7.8 | 0.00 | 0.34 | 0.00 | 75 | 1007.8 |
| 20260507121006 | 49 | 102 | 0.9 | 4.3 | 0.00 | 0.34 | 0.00 | 75 | 1007.7 |
| 20260507120503 | 48 | 244 | 1.7 | 4.3 | 0.00 | 0.34 | 0.00 | 78 | 1007.7 |
| 20260507120008 | 48 | 281 | 1.7 | 7.0 | 0.00 | 0.34 | 0.00 | 81 | 1007.7 |
| 20260507115506 | 47 | 126 | 1.7 | 7.0 | 0.00 | 0.34 | 0.00 | 82 | 1007.8 |
| 20260507115002 | 46 | 113 | 0.0 | 2.6 | 0.00 | 0.34 | 0.00 | 87 | 1007.7 |
| 20260507114503 | 46 | 120 | 0.0 | 1.7 | 0.00 | 0.34 | 0.00 | 87 | 1007.7 |
| 20260507114003 | 45 | 122 | 0.0 | 1.7 | 0.00 | 0.34 | 0.00 | 88 | 1007.7 |
| 20260507113503 | 45 | 94 | 0.0 | 1.7 | 0.00 | 0.34 | 0.00 | 89 | 1007.8 |
| 20260507113010 | 44 | 94 | 0.0 | 1.7 | 0.00 | 0.34 | 0.00 | 91 | 1007.7 |
| 20260507112504 | 44 | 94 | 0.0 | 0.9 | 0.00 | 0.34 | 0.00 | 92 | 1007.9 |
| 20260507112004 | 44 | 94 | 0.0 | 0.9 | 0.00 | 0.34 | 0.00 | 93 | 1007.8 |
| 20260507111510 | 43 | 94 | 0.0 | 1.7 | 0.00 | 0.34 | 0.00 | 93 | 1007.8 |
| 20260507111003 | 43 | 94 | 0.0 | 1.7 | 0.00 | 0.34 | 0.00 | 94 | 1007.8 |
| 20260507110505 | 42 | 94 | 0.0 | 0.9 | 0.00 | 0.34 | 0.00 | 93 | 1007.7 |
| 20260507110015 | 42 | 94 | 0.0 | 0.9 | 0.00 | 0.34 | 0.00 | 93 | 1007.5 |
| 20260507105504 | 42 | 94 | 0.0 | 0.9 | 0.00 | 0.34 | 0.00 | 92 | 1007.5 |
| 20260507105002 | 42 | 94 | 0.0 | 1.7 | 0.00 | 0.34 | 0.00 | 93 | 1007.5 |
| 20260507104509 | 42 | 94 | 0.0 | 1.7 | 0.00 | 0.34 | 0.00 | 92 | 1007.5 |
| 20260507104010 | 42 | 94 | 0.0 | 1.7 | 0.00 | 0.34 | 0.00 | 92 | 1007.6 |
| 20260507103503 | 43 | 94 | 0.0 | 1.7 | 0.00 | 0.34 | 0.00 | 92 | 1007.6 |
| 20260507103002 | 43 | 94 | 0.0 | 1.7 | 0.00 | 0.34 | 0.00 | 92 | 1007.6 |
| 20260507102502 | 43 | 94 | 0.0 | 1.7 | 0.00 | 0.34 | 0.00 | 92 | 1007.4 |
| 20260507102003 | 43 | 94 | 0.0 | 1.7 | 0.00 | 0.34 | 0.00 | 92 | 1007.2 |
| 20260507101514 | 43 | 94 | 0.0 | 0.9 | 0.00 | 0.34 | 0.00 | 92 | 1007.4 |
| 20260507101005 | 43 | 94 | 0.0 | 1.7 | 0.00 | 0.34 | 0.00 | 92 | 1007.7 |
| 20260507100503 | 43 | 93 | 0.0 | 1.7 | 0.00 | 0.34 | 0.00 | 91 | 1007.6 |
| 20260507100013 | 44 | 93 | 0.0 | 0.9 | 0.00 | 0.34 | 0.00 | 91 | 1007.4 |
| 20260507095505 | 44 | 93 | 0.0 | 1.7 | 0.00 | 0.34 | 0.00 | 91 | 1007.5 |
| 20260507095007 | 44 | 93 | 0.0 | 1.7 | 0.00 | 0.34 | 0.00 | 91 | 1007.6 |
| 20260507094517 | 44 | 93 | 0.0 | 2.6 | 0.00 | 0.34 | 0.00 | 91 | 1007.8 |
| 20260507094003 | 44 | 93 | 0.9 | 2.6 | 0.00 | 0.34 | 0.00 | 91 | 1007.4 |
| 20260507093506 | 44 | 350 | 0.0 | 1.7 | 0.00 | 0.34 | 0.00 | 91 | 1007.6 |
| 20260507093016 | 44 | 350 | 0.0 | 1.7 | 0.00 | 0.34 | 0.00 | 91 | 1007.3 |
| 20260507092513 | 44 | 229 | 0.0 | 2.6 | 0.00 | 0.34 | 0.00 | 92 | 1007.5 |
| 20260507092008 | 44 | 245 | 0.9 | 4.3 | 0.00 | 0.34 | 0.00 | 92 | 1007.4 |
| 20260507091506 | 44 | 285 | 0.0 | 5.2 | 0.00 | 0.34 | 0.00 | 92 | 1007.4 |
| 20260507091003 | 44 | 282 | 0.0 | 5.2 | 0.00 | 0.34 | 0.00 | 92 | 1007.6 |
| 20260507090502 | 44 | 11 | 0.0 | 1.7 | 0.00 | 0.34 | 0.00 | 92 | 1007.3 |
| 20260507090008 | 44 | 9 | 0.0 | 1.7 | 0.00 | 0.34 | 0.00 | 92 | 1006.9 |
| 20260507085503 | 44 | 5 | 0.0 | 2.6 | 0.00 | 0.34 | 0.00 | 92 | 1007.0 |
| 20260507085004 | 44 | 5 | 0.0 | 2.6 | 0.00 | 0.34 | 0.00 | 92 | 1006.9 |
| 20260507084508 | 45 | 193 | 0.0 | 2.6 | 0.00 | 0.34 | 0.00 | 92 | 1006.9 |
| 20260507084005 | 45 | 193 | 0.0 | 1.7 | 0.00 | 0.34 | 0.00 | 92 | 1006.8 |
| 20260507083508 | 45 | 142 | 0.0 | 1.7 | 0.00 | 0.34 | 0.00 | 92 | 1006.9 |
| 20260507083017 | 45 | 146 | 0.0 | 1.7 | 0.00 | 0.34 | 0.00 | 92 | 1007.0 |
| 20260507082505 | 45 | 143 | 0.0 | 1.7 | 0.00 | 0.34 | 0.00 | 92 | 1007.1 |
| 20260507082008 | 45 | 144 | 0.0 | 2.6 | 0.00 | 0.34 | 0.00 | 92 | 1006.9 |
| 20260507081533 | 45 | 142 | 0.9 | 4.3 | 0.00 | 0.34 | 0.00 | 92 | 1006.7 |
| 20260507081003 | 45 | 290 | 0.0 | 4.3 | 0.00 | 0.34 | 0.00 | 92 | 1007.0 |
| 20260507080503 | 45 | 296 | 0.0 | 1.7 | 0.00 | 0.34 | 0.00 | 93 | 1007.1 |
| 20260507080005 | 45 | 295 | 0.0 | 1.7 | 0.00 | 0.34 | 0.00 | 92 | 1007.1 |
| 20260507075503 | 45 | 310 | 0.0 | 1.7 | 0.00 | 0.34 | 0.00 | 92 | 1007.1 |
| 20260507075003 | 45 | 309 | 0.0 | 1.7 | 0.00 | 0.34 | 0.00 | 92 | 1007.1 |
| 20260507074510 | 45 | 309 | 0.0 | 1.7 | 0.00 | 0.34 | 0.00 | 92 | 1006.6 |
| 20260507074005 | 45 | 309 | 0.0 | 2.6 | 0.00 | 0.34 | 0.00 | 92 | 1006.6 |
| 20260507073509 | 45 | 309 | 0.9 | 2.6 | 0.00 | 0.34 | 0.00 | 92 | 1006.6 |
| 20260507073010 | 45 | 255 | 0.0 | 2.6 | 0.00 | 0.34 | 0.00 | 92 | 1006.7 |
| 20260507072506 | 45 | 255 | 0.9 | 2.6 | 0.00 | 0.34 | 0.00 | 92 | 1006.8 |
| 20260507072007 | 45 | 248 | 0.0 | 2.6 | 0.00 | 0.34 | 0.00 | 92 | 1006.7 |
| 20260507071508 | 45 | 241 | 0.0 | 1.7 | 0.00 | 0.34 | 0.00 | 92 | 1006.4 |
| 20260507071007 | 45 | 241 | 0.0 | 3.5 | 0.00 | 0.34 | 0.00 | 92 | 1006.6 |
| 20260507070508 | 46 | 241 | 0.9 | 3.5 | 0.00 | 0.34 | 0.00 | 92 | 1006.7 |
| 20260507070022 | 46 | 256 | 0.9 | 4.3 | 0.00 | 0.34 | 0.00 | 91 | 1006.6 |
| 20260507065505 | 46 | 278 | 1.7 | 4.3 | 0.00 | 0.34 | 0.00 | 92 | 1006.6 |
| 20260507065009 | 46 | 278 | 0.0 | 4.3 | 0.00 | 0.34 | 0.00 | 92 | 1006.6 |
| 20260507064522 | 46 | 326 | 0.9 | 4.3 | 0.00 | 0.34 | 0.00 | 92 | 1006.8 |
| 20260507064006 | 46 | 213 | 0.9 | 4.3 | 0.00 | 0.34 | 0.00 | 92 | 1006.6 |
| 20260507063507 | 46 | 257 | 1.7 | 4.3 | 0.00 | 0.34 | 0.00 | 93 | 1006.8 |
| 20260507063012 | 47 | 300 | 0.0 | 1.7 | 0.00 | 0.34 | 0.00 | 93 | 1006.6 |
| 20260507062505 | 47 | 300 | 0.0 | 3.5 | 0.00 | 0.34 | 0.00 | 93 | 1006.7 |
| 20260507062007 | 47 | 300 | 0.9 | 5.2 | 0.00 | 0.34 | 0.00 | 93 | 1006.7 |
| 20260507061516 | 47 | 296 | 1.7 | 5.2 | 0.00 | 0.34 | 0.00 | 93 | 1006.3 |
| 20260507061006 | 47 | 309 | 0.9 | 3.5 | 0.00 | 0.34 | 0.00 | 93 | 1006.5 |
| 20260507060506 | 47 | 267 | 0.9 | 3.5 | 0.00 | 0.34 | 0.00 | 93 | 1006.7 |
| 20260507060012 | 47 | 276 | 0.9 | 3.5 | 0.00 | 0.34 | 0.00 | 93 | 1006.7 |
| 20260507055507 | 47 | 286 | 0.0 | 2.6 | 0.00 | 0.34 | 0.00 | 93 | 1006.6 |
| 20260507055015 | 47 | 285 | 0.9 | 3.5 | 0.00 | 0.34 | 0.00 | 93 | 1006.8 |
| 20260507054526 | 47 | 297 | 0.9 | 3.5 | 0.00 | 0.34 | 0.00 | 93 | 1006.7 |
| 20260507054006 | 47 | 289 | 1.7 | 3.5 | 0.00 | 0.35 | 0.00 | 93 | 1006.8 |
| 20260507053507 | 47 | 185 | 0.0 | 1.7 | 0.00 | 0.35 | 0.00 | 93 | 1006.6 |
| 20260507053028 | 47 | 121 | 0.0 | 1.7 | 0.00 | 0.35 | 0.00 | 92 | 1006.5 |
| 20260507052506 | 47 | 315 | 0.0 | 1.7 | 0.00 | 0.35 | 0.00 | 92 | 1006.3 |
| 20260507052007 | 47 | 315 | 0.0 | 2.6 | 0.00 | 0.35 | 0.00 | 92 | 1006.3 |
| 20260507051514 | 47 | 117 | 0.0 | 2.6 | 0.00 | 0.35 | 0.00 | 92 | 1006.2 |
| 20260507051006 | 47 | 81 | 0.9 | 3.5 | 0.00 | 0.35 | 0.00 | 92 | 1006.4 |
| 20260507050505 | 47 | 101 | 0.0 | 3.5 | 0.00 | 0.35 | 0.00 | 92 | 1006.3 |
| 20260507050026 | 47 | 346 | 0.0 | 3.5 | 0.00 | 0.35 | 0.00 | 92 | 1006.1 |
| 20260507045508 | 47 | 266 | 0.0 | 5.2 | 0.00 | 0.35 | 0.00 | 92 | 1006.1 |
| 20260507045007 | 47 | 266 | 0.9 | 5.2 | 0.00 | 0.35 | 0.00 | 92 | 1006.0 |
| 20260507044520 | 48 | 263 | 0.9 | 12.2 | 0.00 | 0.35 | 0.00 | 92 | 1006.0 |
| 20260507044007 | 48 | 29 | 0.9 | 12.2 | 0.00 | 0.35 | 0.00 | 92 | 1006.3 |
| 20260507043507 | 48 | 285 | 1.7 | 5.2 | 0.00 | 0.35 | 0.00 | 92 | 1006.5 |
| 20260507043022 | 48 | 250 | 0.9 | 4.3 | 0.00 | 0.35 | 0.00 | 92 | 1006.3 |
| 20260507042511 | 49 | 288 | 0.9 | 5.2 | 0.00 | 0.35 | 0.00 | 92 | 1006.4 |
| 20260507042010 | 49 | 271 | 0.9 | 6.1 | 0.01 | 0.35 | 0.00 | 93 | 1006.4 |
| 20260507041528 | 49 | 328 | 0.9 | 6.1 | 0.02 | 0.35 | 0.00 | 93 | 1006.4 |
| 20260507041008 | 49 | 254 | 0.9 | 3.5 | 0.03 | 0.35 | 0.00 | 93 | 1006.2 |
| 20260507040506 | 50 | 248 | 0.9 | 5.2 | 0.03 | 0.35 | 0.00 | 93 | 1006.2 |
| 20260507040007 | 50 | 270 | 1.7 | 5.2 | 0.04 | 0.35 | 0.00 | 93 | 1006.2 |
| 20260507035508 | 50 | 101 | 0.9 | 5.2 | 0.05 | 0.35 | 0.35 | 93 | 1006.1 |
| 20260507035005 | 50 | 298 | 0.9 | 5.2 | 0.05 | 0.35 | 0.35 | 93 | 1006.0 |
| 20260507034503 | 50 | 300 | 0.9 | 3.5 | 0.05 | 0.35 | 0.35 | 93 | 1006.1 |
| 20260507034003 | 51 | 263 | 0.9 | 3.5 | 0.05 | 0.35 | 0.35 | 93 | 1006.2 |
| 20260507033502 | 51 | 249 | 0.9 | 1.7 | 0.05 | 0.35 | 0.35 | 93 | 1006.1 |
| 20260507033004 | 51 | 281 | 0.0 | 2.6 | 0.05 | 0.35 | 0.35 | 93 | 1006.0 |
| 20260507032504 | 51 | 284 | 0.9 | 3.5 | 0.05 | 0.35 | 0.35 | 92 | 1006.1 |
| 20260507032003 | 51 | 277 | 0.9 | 3.5 | 0.04 | 0.34 | 0.34 | 92 | 1006.4 |
| 20260507031507 | 52 | 256 | 0.0 | 2.6 | 0.03 | 0.33 | 0.33 | 92 | 1006.4 |
| 20260507031005 | 52 | 258 | 0.0 | 2.6 | 0.02 | 0.32 | 0.32 | 92 | 1006.3 |
| 20260507030504 | 52 | 274 | 0.9 | 5.2 | 0.03 | 0.32 | 0.32 | 92 | 1006.2 |
| 20260507030016 | 53 | 255 | 0.9 | 5.2 | 0.03 | 0.31 | 0.31 | 92 | 1006.2 |
| 20260507025508 | 53 | 301 | 1.7 | 4.3 | 0.03 | 0.30 | 0.30 | 92 | 1006.2 |
| 20260507025003 | 53 | 327 | 0.9 | 7.0 | 0.04 | 0.30 | 0.30 | 92 | 1006.2 |
| 20260507024515 | 54 | 259 | 0.9 | 7.0 | 0.05 | 0.30 | 0.30 | 92 | 1005.9 |
| 20260507024009 | 54 | 278 | 1.7 | 4.3 | 0.06 | 0.30 | 0.30 | 92 | 1005.7 |
| 20260507023502 | 54 | 263 | 0.9 | 4.3 | 0.08 | 0.30 | 0.30 | 92 | 1005.6 |
| 20260507023007 | 55 | 329 | 0.9 | 3.5 | 0.08 | 0.30 | 0.30 | 92 | 1005.6 |
| 20260507022504 | 55 | 252 | 1.7 | 6.1 | 0.08 | 0.30 | 0.30 | 92 | 1005.5 |
| 20260507022003 | 55 | 244 | 0.0 | 6.1 | 0.08 | 0.30 | 0.30 | 92 | 1005.4 |
| 20260507021504 | 55 | 71 | 0.9 | 4.3 | 0.08 | 0.30 | 0.30 | 92 | 1005.2 |
| 20260507021008 | 56 | 306 | 0.0 | 4.3 | 0.08 | 0.30 | 0.30 | 92 | 1005.1 |
| 20260507020504 | 56 | 306 | 0.0 | 4.3 | 0.07 | 0.29 | 0.29 | 92 | 1005.2 |
| 20260507020004 | 56 | 292 | 0.9 | 2.6 | 0.06 | 0.28 | 0.28 | 91 | 1005.2 |
| 20260507015504 | 57 | 223 | 0.9 | 2.6 | 0.05 | 0.27 | 0.27 | 91 | 1005.2 |
| 20260507015008 | 57 | 275 | 0.9 | 3.5 | 0.04 | 0.26 | 0.26 | 92 | 1005.1 |
| 20260507014516 | 58 | 240 | 0.0 | 3.5 | 0.03 | 0.25 | 0.25 | 93 | 1005.1 |
| 20260507014003 | 58 | 256 | 0.9 | 2.6 | 0.02 | 0.24 | 0.24 | 93 | 1004.9 |
| 20260507013507 | 58 | 125 | 0.0 | 1.7 | 0.00 | 0.22 | 0.22 | 92 | 1004.8 |
| 20260507013021 | 58 | 124 | 0.0 | 1.7 | 0.00 | 0.22 | 0.22 | 92 | 1004.8 |
| 20260507012507 | 58 | 122 | 0.0 | 1.7 | 0.00 | 0.22 | 0.22 | 92 | 1004.7 |
| 20260507012006 | 58 | 130 | 0.0 | 2.6 | 0.00 | 0.22 | 0.22 | 92 | 1004.7 |
| 20260507011508 | 58 | 280 | 0.0 | 3.5 | 0.00 | 0.22 | 0.22 | 92 | 1004.7 |
| 20260507011002 | 59 | 283 | 0.9 | 3.5 | 0.00 | 0.22 | 0.22 | 92 | 1004.7 |
| 20260507010503 | 59 | 40 | 0.9 | 2.6 | 0.00 | 0.22 | 0.22 | 92 | 1004.7 |
| 20260507010008 | 59 | 124 | 0.0 | 1.7 | 0.00 | 0.22 | 0.22 | 92 | 1004.7 |
| 20260507005506 | 59 | 124 | 0.0 | 1.7 | 0.00 | 0.22 | 0.22 | 92 | 1004.7 |
| 20260507005006 | 59 | 124 | 0.0 | 1.7 | 0.00 | 0.22 | 0.22 | 92 | 1004.8 |
| 20260507004509 | 59 | 136 | 0.0 | 1.7 | 0.00 | 0.22 | 0.22 | 92 | 1004.7 |
| 20260507004007 | 59 | 136 | 0.9 | 3.5 | 0.00 | 0.22 | 0.22 | 92 | 1004.7 |
| 20260507003508 | 59 | 55 | 0.9 | 3.5 | 0.00 | 0.22 | 0.22 | 92 | 1004.7 |
| 20260507003019 | 59 | 94 | 0.9 | 3.5 | 0.00 | 0.22 | 0.22 | 92 | 1004.7 |
| 20260507002503 | 59 | 335 | 0.0 | 2.6 | 0.00 | 0.22 | 0.22 | 92 | 1004.7 |
| 20260507002008 | 59 | 12 | 0.0 | 2.6 | 0.00 | 0.22 | 0.22 | 92 | 1004.8 |
| 20260507001548 | 59 | 12 | 0.9 | 2.6 | 0.00 | 0.22 | 0.22 | 92 | 1004.6 |
| 20260507001003 | 59 | 152 | 0.0 | 4.3 | 0.00 | 0.22 | 0.22 | 91 | 1004.6 |
| 20260507000507 | 59 | 155 | 0.0 | 4.3 | 0.00 | 0.22 | 0.22 | 91 | 1004.5 |
| 20260507000013 | 59 | 355 | 0.9 | 5.2 | 0.00 | 0.22 | 0.22 | 91 | 1004.4 |
| 20260506235504 | 59 | 129 | 0.0 | 5.2 | 0.00 | 0.22 | 0.22 | 91 | 1004.5 |
| 20260506235006 | 59 | 29 | 0.0 | 7.8 | 0.00 | 0.22 | 0.22 | 91 | 1004.4 |
| 20260506234511 | 59 | 97 | 1.7 | 7.8 | 0.00 | 0.22 | 0.22 | 91 | 1004.4 |
| 20260506234006 | 59 | 94 | 0.0 | 4.3 | 0.00 | 0.22 | 0.22 | 91 | 1004.5 |
| 20260506233507 | 59 | 78 | 0.9 | 4.3 | 0.00 | 0.22 | 0.22 | 91 | 1004.5 |
| 20260506233011 | 59 | 55 | 0.0 | 4.3 | 0.00 | 0.22 | 0.22 | 91 | 1004.5 |
| 20260506232508 | 59 | 63 | 0.9 | 3.5 | 0.00 | 0.22 | 0.22 | 91 | 1004.6 |
| 20260506232009 | 59 | 326 | 0.0 | 3.5 | 0.00 | 0.22 | 0.22 | 91 | 1004.5 |
| 20260506231509 | 59 | 68 | 0.9 | 3.5 | 0.00 | 0.22 | 0.22 | 91 | 1004.5 |
| 20260506231004 | 59 | 287 | 0.9 | 3.5 | 0.00 | 0.22 | 0.22 | 91 | 1004.4 |
| 20260506230511 | 59 | 5 | 0.9 | 3.5 | 0.00 | 0.22 | 0.22 | 91 | 1004.5 |
| 20260506230033 | 59 | 127 | 0.0 | 5.2 | 0.00 | 0.22 | 0.22 | 91 | 1004.5 |
| 20260506225503 | 59 | 360 | 1.7 | 5.2 | 0.00 | 0.22 | 0.22 | 91 | 1004.5 |
| 20260506225006 | 59 | 282 | 0.0 | 4.3 | 0.00 | 0.22 | 0.22 | 91 | 1004.5 |
| 20260506224510 | 59 | 360 | 0.0 | 4.3 | 0.00 | 0.22 | 0.22 | 91 | 1004.5 |
| 20260506224005 | 60 | 51 | 0.9 | 7.0 | 0.00 | 0.22 | 0.22 | 90 | 1004.6 |
| 20260506223506 | 60 | 75 | 2.6 | 7.0 | 0.00 | 0.22 | 0.22 | 91 | 1004.6 |
| 20260506223019 | 60 | 360 | 0.0 | 4.3 | 0.00 | 0.22 | 0.22 | 91 | 1004.7 |
| 20260506222510 | 60 | 98 | 1.7 | 6.1 | 0.00 | 0.22 | 0.22 | 91 | 1004.6 |
| 20260506222005 | 60 | 53 | 0.9 | 6.1 | 0.00 | 0.22 | 0.22 | 91 | 1004.7 |